Howell, MI

8:00 PM EDT on May 27, 2017 (GMT -0400)
Livingston County

Weather History for KOZW - January, 2015

Change the Weather History Date:

Wednesday, January 28, 2015

  Actual Average Record
Temperature  
Mean Temperature 18 °F -  
Max Temperature 30 °F 30 °F 59 °F (2002)
Min Temperature 5 °F 17 °F -10 °F (2014)
Degree Days  
Heating Degree Days 48    
Moisture  
Dew Point 8 °F    
Average Humidity 68    
Maximum Humidity 91    
Minimum Humidity 35    
Precipitation  
Precipitation 0.00 in - - ()
Sea Level Pressure  
Sea Level Pressure 30.23 in    
Wind  
Wind Speed 5 mph (South)    
Max Wind Speed 16 mph    
Max Gust Speed 22 mph    
Visibility 10 miles    
Events      
Averages and records for this station are not official NWS values.
T = Trace of Precipitation, MM = Missing Value Source: NWS Daily Summary

Daily Weather History Graph

Daily Weather History Graph

Search for Another Location

Airport or City:

Trip Planner

Search our weather history database for the weather conditions in past years. The results will help you decide how hot, cold, wet, or windy it might be!

Date:

Astronomy

Jan. 28, 2015 Rise Set
Actual Time 7:54 AM EST 5:43 PM EST
Civil Twilight 7:24 AM EST 6:14 PM EST
Nautical Twilight 6:50 AM EST 6:48 PM EST
Astronomical Twilight 6:16 AM EST 7:21 PM EST
Moon 12:48 PM EST 2:24 AM EST
Length of Visible Light 10h 50m
Length of Day
9h 49m
Waxing Gibbous, 66% of the Moon is Illuminated
Jan 28
Waxing Gibbous
Feb 3
Full
Feb 11
Last Quarter
Feb 18
New
Feb 25
First Quarter

Hourly Weather History & Observations

Time (EST) Temp. Windchill Dew Point Humidity Pressure Visibility Wind Dir Wind Speed Gust Speed Precip Events Conditions
12:15 AM 10.9 °F 2.9 °F 8.1 °F 88% 30.23 in 10.0 mi West 4.6 mph - N/A   Clear
12:35 AM 10.0 °F 3.6 °F 7.5 °F 90% 30.23 in 10.0 mi NW 3.5 mph - N/A   Clear
12:54 AM 10.9 °F - 8.4 °F 90% 30.23 in 10.0 mi Calm Calm - N/A   Clear
1:15 AM 9.0 °F - 6.6 °F 90% 30.23 in 10.0 mi Calm Calm - N/A   Clear
1:34 AM 8.6 °F - 6.3 °F 90% 30.22 in 10.0 mi Calm Calm - N/A   Clear
1:55 AM 8.4 °F - 6.1 °F 90% 30.22 in 10.0 mi Calm Calm - N/A   Clear
2:15 AM 7.9 °F - 5.7 °F 91% 30.23 in 10.0 mi Calm Calm - N/A   Clear
2:34 AM 7.7 °F - 5.5 °F 91% 30.23 in 10.0 mi Calm Calm - N/A   Clear
2:55 AM 7.7 °F - 5.4 °F 90% 30.22 in 10.0 mi Calm Calm - N/A   Clear
3:15 AM 8.6 °F 2.0 °F 6.3 °F 90% 30.23 in 10.0 mi WSW 3.5 mph - N/A   Clear
3:34 AM 8.2 °F -0.3 °F 5.9 °F 90% 30.24 in 10.0 mi WSW 4.6 mph - N/A   Clear
3:55 AM 7.3 °F -1.3 °F 5.0 °F 90% 30.25 in 10.0 mi WSW 4.6 mph - N/A   Clear
4:15 AM 6.4 °F -2.4 °F 3.7 °F 89% 30.26 in 10.0 mi WSW 4.6 mph - N/A   Clear
4:34 AM 6.1 °F -2.8 °F 3.7 °F 90% 30.28 in 10.0 mi West 4.6 mph - N/A   Clear
4:55 AM 6.4 °F -0.5 °F 3.9 °F 89% 30.28 in 10.0 mi West 3.5 mph - N/A   Clear
5:14 AM 6.4 °F -0.5 °F 4.1 °F 90% 30.28 in 10.0 mi West 3.5 mph - N/A   Clear
5:35 AM 6.8 °F -2.0 °F 4.1 °F 89% 30.29 in 10.0 mi West 4.6 mph - N/A   Clear
5:55 AM 6.8 °F -0.1 °F 4.5 °F 90% 30.29 in 10.0 mi WSW 3.5 mph - N/A   Clear
6:14 AM 7.7 °F - 5.2 °F 89% 30.30 in 10.0 mi Calm Calm - N/A   Clear
6:35 AM 7.7 °F - 5.0 °F 89% 30.30 in 10.0 mi Calm Calm - N/A   Clear
6:55 AM 6.4 °F - 3.4 °F 87% 30.30 in 10.0 mi Calm Calm - N/A   Clear
7:14 AM 6.8 °F - 4.3 °F 89% 30.31 in 10.0 mi Calm Calm - N/A   Clear
7:35 AM 7.0 °F - 4.3 °F 89% 30.31 in 10.0 mi Calm Calm - N/A   Clear
7:55 AM 5.9 °F - 3.2 °F 89% 30.31 in 10.0 mi Calm Calm - N/A   Clear
8:14 AM 6.6 °F - 3.9 °F 89% 30.32 in 10.0 mi Calm Calm - N/A   Clear
8:35 AM 8.4 °F - 5.9 °F 89% 30.32 in 7.0 mi Calm Calm - N/A   Clear
8:55 AM 10.2 °F - 7.7 °F 90% 30.32 in 10.0 mi Calm Calm - N/A   Clear
9:14 AM 11.7 °F - 9.1 °F 90% 30.32 in 7.0 mi Calm Calm - N/A   Clear
9:35 AM 14.7 °F 9.0 °F 11.8 °F 88% 30.31 in 10.0 mi ESE 3.5 mph - N/A   Clear
9:55 AM 17.2 °F 10.2 °F 14.2 °F 88% 30.31 in 10.0 mi South 4.6 mph - N/A   Clear
10:15 AM 19.8 °F 13.2 °F 13.1 °F 75% 30.30 in 10.0 mi SE 4.6 mph - N/A   Clear
10:35 AM 21.6 °F 16.8 °F 13.5 °F 71% 30.30 in 10.0 mi SSE 3.5 mph - N/A   Clear
10:55 AM 22.6 °F 16.5 °F 12.9 °F 66% 30.31 in 10.0 mi South 4.6 mph - N/A   Clear
11:35 AM 24.8 °F 17.9 °F 11.3 °F 57% 30.30 in 10.0 mi SSW 5.8 mph - N/A   Clear
11:55 AM 25.9 °F 18.2 °F 9.7 °F 50% 30.30 in 10.0 mi SW 6.9 mph - N/A   Clear
12:15 PM 26.6 °F 20.0 °F 8.8 °F 47% 30.30 in 10.0 mi SSW 5.8 mph - N/A   Clear
12:35 PM 27.5 °F 19.3 °F 9.0 °F 46% 30.29 in 10.0 mi SW 8.1 mph - N/A   Clear
12:54 PM 28.4 °F 21.2 °F 7.7 °F 42% 30.28 in 10.0 mi South 6.9 mph - N/A   Clear
1:15 PM 29.1 °F 20.0 °F 7.0 °F 39% 30.27 in 10.0 mi South 10.4 mph - N/A   Clear
1:35 PM 29.8 °F 20.9 °F 7.0 °F 38% 30.25 in 10.0 mi SE 10.4 mph - N/A   Clear
1:54 PM 29.8 °F 22.2 °F 6.6 °F 38% 30.24 in 10.0 mi SSE 8.1 mph - N/A   Clear
2:15 PM 30.0 °F 24.1 °F 5.4 °F 35% 30.23 in 10.0 mi SSE 5.8 mph - N/A   Clear
2:35 PM 30.2 °F 23.4 °F 7.0 °F 38% 30.23 in 10.0 mi South 6.9 mph - N/A   Clear
2:54 PM 29.7 °F 22.0 °F 6.8 °F 38% 30.23 in 10.0 mi South 8.1 mph - N/A   Clear
3:15 PM 29.3 °F 22.3 °F 8.6 °F 42% 30.23 in 10.0 mi SSE 6.9 mph - N/A   Clear
3:35 PM 28.9 °F 19.8 °F 8.8 °F 43% 30.22 in 10.0 mi South 10.4 mph - N/A   Clear
3:54 PM 28.4 °F 18.5 °F 9.5 °F 45% 30.22 in 10.0 mi SSE 11.5 mph - N/A   Clear
4:15 PM 27.9 °F 17.3 °F 8.6 °F 44% 30.20 in 10.0 mi SSE 12.7 mph - N/A   Clear
4:34 PM 27.0 °F 16.7 °F 6.6 °F 42% 30.20 in 10.0 mi SSE 11.5 mph - N/A   Clear
4:55 PM 26.6 °F 16.2 °F 6.8 °F 43% 30.21 in 10.0 mi South 11.5 mph - N/A   Clear
5:15 PM 26.6 °F 17.5 °F 5.9 °F 41% 30.21 in 10.0 mi South 9.2 mph - N/A   Mostly Cloudy
5:34 PM 26.1 °F 15.6 °F 8.6 °F 48% 30.20 in 10.0 mi SSE 11.5 mph - N/A   Mostly Cloudy
5:55 PM 25.7 °F 16.4 °F 9.3 °F 50% 30.20 in 10.0 mi South 9.2 mph - N/A   Overcast
6:15 PM 25.7 °F 18.0 °F 8.2 °F 48% 30.20 in 10.0 mi South 6.9 mph - N/A   Overcast
6:34 PM 25.5 °F 16.2 °F 7.7 °F 47% 30.20 in 10.0 mi South 9.2 mph - N/A   Scattered Clouds
6:55 PM 25.2 °F 15.7 °F 9.1 °F 51% 30.19 in 10.0 mi SSE 9.2 mph - N/A   Clear
7:15 PM 24.8 °F 14.0 °F 8.8 °F 51% 30.18 in 10.0 mi SSE 11.5 mph - N/A   Clear
7:34 PM 24.6 °F 13.8 °F 7.5 °F 48% 30.17 in 10.0 mi SE 11.5 mph 18.4 mph N/A   Clear
7:55 PM 24.6 °F 13.2 °F 9.0 °F 51% 30.17 in 10.0 mi SSE 12.7 mph - N/A   Clear
8:15 PM 24.4 °F 13.0 °F 11.1 °F 57% 30.15 in 10.0 mi SSE 12.7 mph 17.3 mph N/A   Clear
8:34 PM 24.4 °F 13.5 °F 12.2 °F 60% 30.14 in 10.0 mi SSE 11.5 mph - N/A   Clear
8:55 PM 24.1 °F 13.7 °F 11.7 °F 59% 30.13 in 10.0 mi SSE 10.4 mph 17.3 mph N/A   Clear
9:15 PM 23.7 °F 11.5 °F 12.7 °F 63% 30.12 in 10.0 mi SSE 13.8 mph - N/A   Clear
9:35 PM 23.5 °F 11.3 °F 12.7 °F 63% 30.11 in 10.0 mi SE 13.8 mph - N/A   Clear
9:55 PM 23.5 °F 11.8 °F 12.9 °F 64% 30.11 in 10.0 mi SSE 12.7 mph - N/A   Clear
10:15 PM 23.4 °F 10.1 °F 13.1 °F 65% 30.09 in 10.0 mi SSE 16.1 mph 19.6 mph N/A   Clear
10:35 PM 23.4 °F 11.6 °F 12.4 °F 63% 30.08 in 10.0 mi SE 12.7 mph 19.6 mph N/A   Clear
10:55 PM 23.9 °F 12.3 °F 11.3 °F 59% 30.07 in 10.0 mi SSE 12.7 mph 18.4 mph N/A   Clear
11:15 PM 24.3 °F 12.2 °F 12.9 °F 62% 30.05 in 10.0 mi SSE 13.8 mph 21.9 mph N/A   Clear
11:35 PM 24.6 °F 13.8 °F 14.0 °F 64% 30.06 in 10.0 mi SSE 11.5 mph 19.6 mph N/A   Scattered Clouds
11:55 PM 24.8 °F 12.4 °F 14.5 °F 65% 30.06 in 10.0 mi SSE 15.0 mph 20.7 mph N/A   Mostly Cloudy